Location: 32930 Toén, Ourense, España
(42.3348°N, 7.8903°W)
Time: 11:38:17
(UTC+02:00)

ISS - Pass Details

Date: 03 June 2020
Orbit: 417 x 421 km, 51.6° (Epoch: 07 July)

Event Time Altitude Azimuth Distance (km) Brightness Sun altitude
Rises 23:44:00 0° 293° (WNW) 2,376 1.2 -14.9°
Reaches altitude 10° 23:46:28 10° 275° (W) 1,508 -0.3 -15.2°
Maximum altitude 23:49:00 20° 227° (SW) 1,044 -1.8 -15.5°
Enters shadow 23:50:03 17° 201° (SSW) 1,136 -1.9 -15.6°
